Location: Sternwarte Stuttgart
(48.7670°N, 9.1830°E)
Time: 00:38:35
(UTC+01:00)

Cosmos 2227 Rocket - Pass Details

Date: 24 January 2019
Orbit: 837 x 847 km, 71.0° (Epoch: 20 February)

Event Time Altitude Azimuth Distance (km) Brightness Sun altitude
Exits shadow 06:12:23 - 337° (NNW) 2,602 4.4 -18.1°
Reaches altitude 10° 06:12:43 10° 338° (NNW) 2,480 4.3 -18.0°
Maximum altitude 06:18:19 56° 57° (ENE) 1,001 2.8 -17.1°
Drops below altitude 10° 06:23:54 10° 135° (SE) 2,466 5.5 -16.2°
Sets 06:26:23 0° 140° (SE) 3,397 6.2 -15.8°
